When you browse on this site, cookies collect data to enhance your experience and personalize the content and advertising you see.
Visit our Privacy Policy to learn more. By continuing to use the site, you agree to this use of cookies and data.
  • In Germany
  • List of Countries
  • For 7 days
  • Water Temperature
  • Satellite Maps
  • Weather Map
  • Weather Widgets
  • user-avatar
    Login

    Hourly Weather Kury

    Today, 27 May, Monday

    Time Temperature Precipitation Wind Pressure Humidity
    00:00 +13°C° 0 mm 3 mps 749 mmHg 83%
    01:00 +13°C° 0 mm 3 mps 748 mmHg 85%
    02:00 +13°C° 0 mm 3 mps 748 mmHg 87%
    03:00 +13°C° 0 mm 3 mps 748 mmHg 89%
    04:00 +12°C° 0 mm 3 mps 748 mmHg 91%
    05:00 +14°C° 0 mm 4 mps 748 mmHg 86%
    06:00 +17°C° 0 mm 4 mps 748 mmHg 80%
    07:00 +19°C° 0 mm 4 mps 748 mmHg 75%
    08:00 +20°C° 0.1 mm 5 mps 748 mmHg 69%
    09:00 +22°C° 0.1 mm 5 mps 748 mmHg 63%
    10:00 +23°C° 0.1 mm 5 mps 747 mmHg 57%
    11:00 +25°C° 0.1 mm 5 mps 747 mmHg 56%
    12:00 +26°C° 0.1 mm 5 mps 747 mmHg 54%
    13:00 +26°C° 0.1 mm 5 mps 747 mmHg 53%
    14:00 +26°C° 0.2 mm 5 mps 747 mmHg 55%
    15:00 +26°C° 0.2 mm 5 mps 746 mmHg 57%
    16:00 +26°C° 0.2 mm 4 mps 746 mmHg 60%
    17:00 +23°C° 0.3 mm 4 mps 746 mmHg 66%
    18:00 +21°C° 0.3 mm 3 mps 746 mmHg 73%
    19:00 +20°C° 0.3 mm 3 mps 746 mmHg 80%
    20:00 +19°C° 0 mm 3 mps 746 mmHg 82%
    21:00 +19°C° 0 mm 2 mps 746 mmHg 84%
    22:00 +18°C° 0 mm 2 mps 746 mmHg 86%
    23:00 +17°C° 0.3 mm 2 mps 746 mmHg 88%

    Tomorrow, 28 May, Tuesday

    Time Temperature Precipitation Wind Pressure Humidity
    00:00 +17°C° 0.3 mm 2 mps 745 mmHg 90%
    01:00 +17°C° 0.3 mm 2 mps 745 mmHg 93%
    02:00 +17°C° 0.5 mm 3 mps 745 mmHg 94%
    03:00 +17°C° 0.5 mm 3 mps 744 mmHg 95%
    04:00 +17°C° 0.5 mm 3 mps 744 mmHg 96%
    05:00 +17°C° 0.5 mm 3 mps 744 mmHg 94%
    06:00 +18°C° 0.5 mm 3 mps 743 mmHg 92%
    07:00 +18°C° 0.5 mm 3 mps 743 mmHg 91%
    08:00 +20°C° 0.3 mm 3 mps 743 mmHg 86%
    09:00 +21°C° 0.3 mm 3 mps 743 mmHg 82%
    10:00 +22°C° 0.3 mm 4 mps 743 mmHg 77%
    11:00 +23°C° 0.5 mm 4 mps 743 mmHg 74%
    12:00 +23°C° 0.5 mm 5 mps 743 mmHg 71%
    13:00 +25°C° 0.5 mm 5 mps 743 mmHg 68%
    14:00 +23°C° 1.7 mm 4 mps 743 mmHg 74%
    15:00 +22°C° 1.7 mm 3 mps 743 mmHg 79%
    16:00 +20°C° 1.7 mm 3 mps 743 mmHg 84%
    17:00 +20°C° 0.9 mm 2 mps 743 mmHg 85%
    18:00 +21°C° 0.9 mm 1 mps 743 mmHg 85%
    19:00 +20°C° 0.9 mm 1 mps 743 mmHg 86%
    20:00 +18°C° 0.6 mm 2 mps 744 mmHg 89%
    21:00 +17°C° 0.6 mm 3 mps 744 mmHg 92%
    22:00 +15°C° 0.6 mm 4 mps 744 mmHg 95%
    23:00 +14°C° 0 mm 4 mps 745 mmHg 94%

    Day after tomorrow, 29 May, Wednesday

    Time Temperature Precipitation Wind Pressure Humidity
    00:00 +13°C° 0 mm 5 mps 745 mmHg 94%
    01:00 +12°C° 0 mm 5 mps 746 mmHg 94%
    02:00 +10°C° 0 mm 5 mps 746 mmHg 93%
    03:00 +10°C° 0 mm 5 mps 747 mmHg 92%
    04:00 +9°C° 0 mm 5 mps 747 mmHg 91%
    05:00 +9°C° 0 mm 5 mps 748 mmHg 90%
    06:00 +9°C° 0 mm 5 mps 748 mmHg 88%
    07:00 +9°C° 0 mm 5 mps 749 mmHg 87%
    08:00 +10°C° 0 mm 4 mps 749 mmHg 84%
    09:00 +11°C° 0 mm 4 mps 750 mmHg 82%
    10:00 +12°C° 0 mm 4 mps 750 mmHg 79%
    11:00 +12°C° 0 mm 4 mps 751 mmHg 76%
    12:00 +13°C° 0 mm 4 mps 751 mmHg 72%
    13:00 +14°C° 0 mm 4 mps 751 mmHg 69%
    14:00 +14°C° 0 mm 4 mps 752 mmHg 69%
    15:00 +16°C° 0 mm 3 mps 752 mmHg 68%
    16:00 +16°C° 0 mm 3 mps 752 mmHg 68%
    17:00 +16°C° 0 mm 3 mps 752 mmHg 70%
    18:00 +14°C° 0 mm 3 mps 752 mmHg 72%
    19:00 +14°C° 0 mm 3 mps 752 mmHg 74%
    20:00 +13°C° 0 mm 3 mps 753 mmHg 75%
    21:00 +12°C° 0 mm 3 mps 753 mmHg 75%
    22:00 +10°C° 0 mm 3 mps 754 mmHg 75%
    23:00 +10°C° 0 mm 3 mps 754 mmHg 77%

    30 May, Thursday

    Time Temperature Precipitation Wind Pressure Humidity
    00:00 +9°C° 0 mm 3 mps 754 mmHg 78%
    01:00 +8°C° 0 mm 3 mps 754 mmHg 79%
    02:00 +7°C° 0 mm 3 mps 754 mmHg 79%
    03:00 +7°C° 0 mm 3 mps 754 mmHg 79%
    04:00 +5°C° 0 mm 3 mps 754 mmHg 79%
    05:00 +8°C° 0 mm 2 mps 754 mmHg 76%
    06:00 +9°C° 0 mm 2 mps 754 mmHg 73%
    07:00 +12°C° 0 mm 2 mps 754 mmHg 70%
    08:00 +12°C° 0 mm 2 mps 755 mmHg 71%
    09:00 +13°C° 0 mm 2 mps 755 mmHg 72%
    10:00 +14°C° 0 mm 2 mps 755 mmHg 73%
    11:00 +14°C° 0 mm 2 mps 754 mmHg 72%
    12:00 +14°C° 0 mm 2 mps 754 mmHg 71%
    13:00 +15°C° 0 mm 2 mps 754 mmHg 71%
    14:00 +15°C° 0 mm 2 mps 754 mmHg 67%
    15:00 +16°C° 0 mm 2 mps 754 mmHg 64%
    16:00 +17°C° 0 mm 2 mps 754 mmHg 60%
    17:00 +16°C° 0 mm 1 mps 754 mmHg 64%
    18:00 +16°C° 0 mm 1 mps 754 mmHg 68%
    19:00 +15°C° 0 mm 1 mps 754 mmHg 71%
    20:00 +14°C° 0 mm 1 mps 754 mmHg 73%
    21:00 +13°C° 0 mm 1 mps 754 mmHg 74%
    22:00 +12°C° 0 mm 1 mps 754 mmHg 76%
    23:00 +11°C° 0 mm 1 mps 754 mmHg 77%

    31 May, Friday

    Time Temperature Precipitation Wind Pressure Humidity
    00:00 +11°C° 0 mm 1 mps 753 mmHg 77%
    01:00 +10°C° 0 mm 1 mps 753 mmHg 78%
    02:00 +10°C° 0 mm 1 mps 753 mmHg 79%
    03:00 +10°C° 0 mm 1 mps 752 mmHg 81%
    04:00 +10°C° 0 mm 1 mps 752 mmHg 82%
    05:00 +12°C° 0 mm 1 mps 752 mmHg 79%
    06:00 +13°C° 0 mm 2 mps 752 mmHg 75%
    07:00 +15°C° 0 mm 2 mps 752 mmHg 71%
    08:00 +17°C° 0 mm 3 mps 751 mmHg 67%
    09:00 +18°C° 0 mm 3 mps 751 mmHg 63%
    10:00 +20°C° 0 mm 3 mps 750 mmHg 59%
    11:00 +21°C° 0 mm 3 mps 750 mmHg 55%
    12:00 +22°C° 0 mm 3 mps 749 mmHg 52%
    13:00 +24°C° 0 mm 3 mps 749 mmHg 49%
    14:00 +22°C° 0.4 mm 4 mps 749 mmHg 56%
    15:00 +21°C° 0.4 mm 5 mps 750 mmHg 63%
    16:00 +20°C° 0.4 mm 7 mps 750 mmHg 71%
    17:00 +16°C° 0.2 mm 7 mps 751 mmHg 75%
    18:00 +11°C° 0.2 mm 7 mps 752 mmHg 80%
    19:00 +7°C° 0.2 mm 8 mps 753 mmHg 85%
    20:00 +8°C° 0.1 mm 7 mps 754 mmHg 82%
    21:00 +8°C° 0.1 mm 6 mps 754 mmHg 80%
    22:00 +8°C° 0.1 mm 5 mps 755 mmHg 77%
    23:00 +7°C° 0 mm 5 mps 756 mmHg 77%

    1 June, Saturday

    Time Temperature Precipitation Wind Pressure Humidity
    00:00 +7°C° 0 mm 5 mps 756 mmHg 78%
    01:00 +7°C° 0 mm 5 mps 756 mmHg 78%
    02:00 +6°C° 0 mm 4 mps 757 mmHg 77%
    03:00 +5°C° 0 mm 4 mps 757 mmHg 77%
    04:00 +5°C° 0 mm 4 mps 758 mmHg 77%
    05:00 +6°C° 0 mm 4 mps 758 mmHg 73%
    06:00 +8°C° 0 mm 5 mps 758 mmHg 69%
    07:00 +9°C° 0 mm 5 mps 759 mmHg 65%
    08:00 +10°C° 0 mm 5 mps 759 mmHg 60%
    09:00 +13°C° 0 mm 5 mps 759 mmHg 55%
    10:00 +14°C° 0 mm 5 mps 759 mmHg 49%
    11:00 +15°C° 0 mm 5 mps 759 mmHg 49%
    12:00 +15°C° 0 mm 5 mps 759 mmHg 49%
    13:00 +16°C° 0 mm 5 mps 759 mmHg 48%
    14:00 +16°C° 0 mm 5 mps 759 mmHg 50%
    15:00 +16°C° 0 mm 5 mps 759 mmHg 51%
    16:00 +16°C° 0 mm 5 mps 759 mmHg 52%
    17:00 +14°C° 0 mm 5 mps 760 mmHg 57%
    18:00 +13°C° 0 mm 4 mps 760 mmHg 62%
    19:00 +12°C° 0 mm 3 mps 760 mmHg 67%
    20:00 +11°C° 0 mm 3 mps 760 mmHg 70%
    21:00 +9°C° 0 mm 3 mps 761 mmHg 72%
    22:00 +8°C° 0 mm 3 mps 761 mmHg 75%
    23:00 +7°C° 0 mm 3 mps 761 mmHg 77%
    Show more